User: anonymous   Login
Location: Unspecified
(0.0000°N, 0.0000°E)
Time: 02:22:30
(UTC+01:00)
Language:

NATO 3D Rocket - Orbit

View from above orbital plane
View from above orbital plane
View from above satellite
View from above satellite

Ground track
Ground track

The orbit data is extracted from the following two-line orbital elements,

1 15392U 84115B   16036.44142717 +.00000253 +00000-0 +81448-4 0  9994
2 15392 021.5003 065.5669 1034268 276.6416 071.7507 12.45517785404118
Epoch (UTC): 05 February 2016 10:35:39
Eccentricity: 0.1034268
inclination: 21.5003°
perigee height: 670 km
apogee height: 2296 km
right ascension of ascending node: 65.5669°
argument of perigee: 276.6416°
revolutions per day: 12.45517785
mean anomaly at epoch: 71.7507°
orbit number at epoch: 40411

The dashed part of the orbit path shows where the satellite is in the earth's shadow,  

DLR